When you browse on this site, cookies collect data to enhance your experience and personalize the content and advertising you see.
Visit our Privacy Policy to learn more. By continuing to use the site, you agree to this use of cookies and data.
  • In Hungary
  • List of Countries
  • For 7 days
  • Water Temperature
  • Satellite Maps
  • Weather Map
  • News
  • Weather Widgets
  • user-avatar
    Login

    Hourly Weather Kaldarovo

    Today, 21 November, Wednesday

    Time Temperature Precipitation Wind Pressure Humidity
    00:00 -4°C° 0.1 mm 2 mps 739 mmHg 95%
    01:00 -4°C° 0.1 mm 2 mps 739 mmHg 95%
    02:00 -4°C° 0.1 mm 2 mps 738 mmHg 95%
    03:00 -5°C° 0.1 mm 3 mps 738 mmHg 95%
    04:00 -5°C° 0.1 mm 3 mps 738 mmHg 95%
    05:00 -5°C° 0.1 mm 3 mps 737 mmHg 95%
    06:00 -5°C° 0.1 mm 3 mps 737 mmHg 95%
    07:00 -5°C° 0.1 mm 3 mps 736 mmHg 94%
    08:00 -5°C° 0.1 mm 3 mps 736 mmHg 93%
    09:00 -5°C° 0.1 mm 4 mps 735 mmHg 91%
    10:00 -5°C° 0.1 mm 4 mps 735 mmHg 90%
    11:00 -5°C° 0.1 mm 4 mps 734 mmHg 87%
    12:00 -5°C° 0.1 mm 5 mps 734 mmHg 85%
    13:00 -5°C° 0.1 mm 5 mps 733 mmHg 83%
    14:00 -5°C° 0.2 mm 5 mps 732 mmHg 85%
    15:00 -6°C° 0.2 mm 5 mps 732 mmHg 87%
    16:00 -6°C° 0.2 mm 5 mps 731 mmHg 88%
    17:00 -6°C° 0.3 mm 6 mps 730 mmHg 89%
    18:00 -6°C° 0.3 mm 6 mps 730 mmHg 89%
    19:00 -6°C° 0.3 mm 6 mps 729 mmHg 90%
    20:00 -6°C° 0.2 mm 6 mps 729 mmHg 89%
    21:00 -6°C° 0.2 mm 5 mps 728 mmHg 89%
    22:00 -7°C° 0.2 mm 5 mps 728 mmHg 88%
    23:00 -7°C° 0.1 mm 5 mps 728 mmHg 88%

    Tomorrow, 22 November, Thursday

    Time Temperature Precipitation Wind Pressure Humidity
    00:00 -6°C° 0.1 mm 5 mps 728 mmHg 87%
    01:00 -6°C° 0.1 mm 6 mps 728 mmHg 87%
    02:00 -7°C° 0.1 mm 5 mps 728 mmHg 86%
    03:00 -8°C° 0.1 mm 5 mps 728 mmHg 85%
    04:00 -8°C° 0.1 mm 5 mps 728 mmHg 83%
    05:00 -10°C° 0 mm 5 mps 729 mmHg 83%
    06:00 -10°C° 0 mm 5 mps 729 mmHg 83%
    07:00 -11°C° 0 mm 5 mps 729 mmHg 84%
    08:00 -11°C° 0 mm 5 mps 730 mmHg 83%
    09:00 -11°C° 0 mm 5 mps 730 mmHg 82%
    10:00 -11°C° 0 mm 5 mps 730 mmHg 81%
    11:00 -11°C° 0 mm 5 mps 730 mmHg 80%
    12:00 -10°C° 0 mm 5 mps 730 mmHg 79%
    13:00 -10°C° 0 mm 5 mps 730 mmHg 78%
    14:00 -10°C° 0.1 mm 5 mps 730 mmHg 79%
    15:00 -9°C° 0.1 mm 4 mps 730 mmHg 80%
    16:00 -9°C° 0.1 mm 4 mps 730 mmHg 81%
    17:00 -9°C° 0.1 mm 4 mps 730 mmHg 82%
    18:00 -10°C° 0.1 mm 5 mps 730 mmHg 84%
    19:00 -10°C° 0.1 mm 5 mps 730 mmHg 85%
    20:00 -10°C° 0.1 mm 5 mps 730 mmHg 86%
    21:00 -10°C° 0.1 mm 5 mps 729 mmHg 87%
    22:00 -10°C° 0.1 mm 6 mps 729 mmHg 88%
    23:00 -10°C° 0.1 mm 6 mps 729 mmHg 89%

    Day after tomorrow, 23 November, Friday

    Time Temperature Precipitation Wind Pressure Humidity
    00:00 -10°C° 0.1 mm 6 mps 729 mmHg 89%
    01:00 -10°C° 0.1 mm 6 mps 728 mmHg 89%
    02:00 -10°C° 0.1 mm 6 mps 728 mmHg 89%
    03:00 -10°C° 0.1 mm 6 mps 728 mmHg 89%
    04:00 -10°C° 0.1 mm 6 mps 727 mmHg 89%
    05:00 -11°C° 0.1 mm 7 mps 727 mmHg 89%
    06:00 -11°C° 0.1 mm 7 mps 726 mmHg 89%
    07:00 -12°C° 0.1 mm 7 mps 725 mmHg 89%
    08:00 -11°C° 0.2 mm 7 mps 725 mmHg 89%
    09:00 -11°C° 0.2 mm 7 mps 724 mmHg 88%
    10:00 -11°C° 0.2 mm 7 mps 724 mmHg 88%
    11:00 -9°C° 0.3 mm 7 mps 723 mmHg 89%
    12:00 -9°C° 0.3 mm 7 mps 723 mmHg 89%
    13:00 -9°C° 0.3 mm 7 mps 722 mmHg 89%
    14:00 -9°C° 0.4 mm 6 mps 722 mmHg 90%
    15:00 -8°C° 0.4 mm 5 mps 722 mmHg 90%
    16:00 -8°C° 0.4 mm 4 mps 722 mmHg 90%
    17:00 -9°C° 0.2 mm 4 mps 722 mmHg 91%
    18:00 -9°C° 0.2 mm 3 mps 723 mmHg 92%
    19:00 -9°C° 0.2 mm 2 mps 723 mmHg 92%
    20:00 -9°C° 0.1 mm 2 mps 724 mmHg 93%
    21:00 -8°C° 0.1 mm 1 mps 724 mmHg 94%
    22:00 -9°C° 0.1 mm 1 mps 725 mmHg 95%
    23:00 -10°C° 0.2 mm 3 mps 726 mmHg 93%

    24 November, Saturday

    Time Temperature Precipitation Wind Pressure Humidity
    00:00 -12°C° 0.2 mm 5 mps 727 mmHg 91%
    01:00 -13°C° 0.2 mm 7 mps 728 mmHg 89%
    02:00 -15°C° 0 mm 8 mps 730 mmHg 87%
    03:00 -16°C° 0 mm 8 mps 731 mmHg 85%
    04:00 -17°C° 0 mm 8 mps 732 mmHg 83%
    05:00 -17°C° 0 mm 8 mps 733 mmHg 84%
    06:00 -18°C° 0 mm 7 mps 735 mmHg 85%
    07:00 -18°C° 0 mm 6 mps 736 mmHg 86%
    08:00 -18°C° 0 mm 6 mps 737 mmHg 87%
    09:00 -17°C° 0 mm 5 mps 738 mmHg 88%
    10:00 -17°C° 0 mm 5 mps 739 mmHg 89%
    11:00 -15°C° 0 mm 5 mps 739 mmHg 89%
    12:00 -14°C° 0 mm 4 mps 740 mmHg 88%
    13:00 -14°C° 0 mm 4 mps 741 mmHg 88%
    14:00 -12°C° 0.1 mm 4 mps 741 mmHg 89%
    15:00 -13°C° 0.1 mm 5 mps 741 mmHg 89%
    16:00 -13°C° 0.1 mm 5 mps 742 mmHg 90%
    17:00 -13°C° 0 mm 5 mps 742 mmHg 90%
    18:00 -14°C° 0 mm 5 mps 742 mmHg 90%
    19:00 -14°C° 0 mm 5 mps 742 mmHg 90%
    20:00 -14°C° 0 mm 5 mps 742 mmHg 90%
    21:00 -15°C° 0 mm 6 mps 742 mmHg 89%
    22:00 -14°C° 0 mm 6 mps 742 mmHg 89%
    23:00 -14°C° 0 mm 6 mps 742 mmHg 88%

    25 November, Sunday

    Time Temperature Precipitation Wind Pressure Humidity
    00:00 -14°C° 0 mm 6 mps 742 mmHg 86%
    01:00 -14°C° 0 mm 6 mps 742 mmHg 85%
    02:00 -14°C° 0 mm 6 mps 742 mmHg 84%
    03:00 -14°C° 0 mm 6 mps 742 mmHg 84%
    04:00 -14°C° 0 mm 6 mps 741 mmHg 83%
    05:00 -14°C° 0 mm 6 mps 741 mmHg 83%
    06:00 -14°C° 0 mm 6 mps 741 mmHg 82%
    07:00 -14°C° 0 mm 6 mps 741 mmHg 81%
    08:00 -14°C° 0 mm 6 mps 741 mmHg 81%
    09:00 -14°C° 0 mm 7 mps 741 mmHg 80%
    10:00 -13°C° 0 mm 7 mps 741 mmHg 79%
    11:00 -13°C° 0 mm 7 mps 741 mmHg 79%
    12:00 -12°C° 0 mm 7 mps 740 mmHg 78%
    13:00 -11°C° 0 mm 7 mps 740 mmHg 78%
    14:00 -11°C° 0 mm 7 mps 740 mmHg 78%
    15:00 -10°C° 0 mm 6 mps 740 mmHg 79%
    16:00 -10°C° 0 mm 6 mps 740 mmHg 80%
    17:00 -10°C° 0 mm 6 mps 740 mmHg 79%
    18:00 -10°C° 0 mm 6 mps 739 mmHg 78%
    19:00 -10°C° 0 mm 6 mps 739 mmHg 78%
    20:00 -10°C° 0 mm 6 mps 739 mmHg 81%
    21:00 -10°C° 0 mm 6 mps 739 mmHg 84%
    22:00 -10°C° 0 mm 6 mps 739 mmHg 87%
    23:00 -8°C° 0.1 mm 5 mps 739 mmHg 89%

    26 November, Monday

    Time Temperature Precipitation Wind Pressure Humidity
    00:00 -8°C° 0.1 mm 5 mps 739 mmHg 91%
    01:00 -8°C° 0.1 mm 5 mps 739 mmHg 92%
    02:00 -8°C° 0.1 mm 5 mps 739 mmHg 93%
    03:00 -7°C° 0.1 mm 4 mps 739 mmHg 94%
    04:00 -7°C° 0.1 mm 4 mps 739 mmHg 94%
    05:00 -7°C° 0.1 mm 4 mps 739 mmHg 95%
    06:00 -6°C° 0.1 mm 3 mps 739 mmHg 95%
    07:00 -6°C° 0.1 mm 3 mps 739 mmHg 95%
    08:00 -6°C° 0.1 mm 3 mps 739 mmHg 95%
    09:00 -5°C° 0.1 mm 4 mps 739 mmHg 94%
    10:00 -5°C° 0.1 mm 4 mps 740 mmHg 94%
    11:00 -5°C° 0.1 mm 4 mps 739 mmHg 93%
    12:00 -4°C° 0.1 mm 4 mps 739 mmHg 93%
    13:00 -4°C° 0.1 mm 4 mps 739 mmHg 92%
    14:00 -4°C° 0.1 mm 4 mps 739 mmHg 93%
    15:00 -5°C° 0.1 mm 4 mps 739 mmHg 93%
    16:00 -5°C° 0.1 mm 4 mps 738 mmHg 93%
    17:00 -6°C° 0 mm 5 mps 738 mmHg 93%
    18:00 -6°C° 0 mm 5 mps 738 mmHg 93%
    19:00 -6°C° 0 mm 5 mps 738 mmHg 93%
    20:00 -6°C° 0 mm 5 mps 738 mmHg 92%
    21:00 -7°C° 0 mm 5 mps 737 mmHg 92%
    22:00 -7°C° 0 mm 5 mps 737 mmHg 91%
    23:00 -7°C° 0.1 mm 5 mps 737 mmHg 90%
    Show more